Regional Weather Roundup
Issued by NWS

Home | Current Version | Previous Version | Text Only | Print | Product List | Glossary On
Versions: 1 2 3 4 5 6 7 8 9 10 11 12 13 14 15 16 17 18 19 20 21 22 23 24 25 26 27 28 29 30 31 32 33 34 35 36 37 38 39 40 41 42 43 44 45 46 47 48 49 50
000
ASUS44 KOUN 242210
RWROK

WEATHER ROUNDUP FOR OKLAHOMA
NATIONAL WEATHER SERVICE NORMAN OK
500 PM CDT SUN JUL 24 2016

NOTE: "FAIR" INDICATES FEW OR NO CLOUDS BELOW 12,000 FEET WITH NO
      SIGNIFICANT WEATHER AND/OR OBSTRUCTIONS TO VISIBILITY.

OKZ001>007-009>012-014-015-017-242300-
NORTHWEST OKLAHOMA AND THE PANHANDLE

CITY           SKY/WX    TMP DP  RH WIND       PRES   REMARKS
GAGE           SUNNY    101  62  27 SE9       29.93F HX 102
GUYMON         SUNNY    101  58  24 E10G18    29.97F HX 100
ENID/WOODRING  PTSUNNY  104  63  25 S9G16     29.87F HX 106
$$

OKZ016-021>023-033>039-044-045-242300-
SOUTHWEST OKLAHOMA

CITY           SKY/WX    TMP DP  RH WIND       PRES   REMARKS
LAWTON/REGL    SUNNY    101  65  30 SE9       29.90F HX 104
LAWTON/FT SILL SUNNY    100  70  38 SE10      29.89F HX 107
FREDERICK      SUNNY    100  66  32 SE9       29.87F HX 104
CLINTON        SUNNY    102  60  25 SE16      29.95F HX 103
HOBART         SUNNY    100  64  30 S13G24    29.92F HX 102
ALTUS AFB      SUNNY    100  60  26 S10       29.90F HX 100
$$

OKZ018>020-024>031-242300-
CENTRAL OKLAHOMA

CITY           SKY/WX    TMP DP  RH WIND       PRES   REMARKS
OKLAHOMA CITY  MOSUNNY   98  67  36 S9        29.92F HX 102
OKC/WILEY POST SUNNY    100  66  32 S10       29.91F HX 104
OKC/TINKER AFB SUNNY     97  69  39 SE10      29.91F HX 102
STILLWATER     SUNNY    101  67  32 SE14      29.90S HX 106
GUTHRIE        SUNNY    102  65  29 S8G17     29.90F HX 105
$$

OKZ008-013-054>072-242300-
NORTHEAST OKLAHOMA

CITY           SKY/WX    TMP DP  RH WIND       PRES   REMARKS
TULSA          MOSUNNY  101  69  35 SW8       29.88F HX 107
TULSA/JONES    SUNNY     99  70  38 S5        29.89F HX 106
PONCA CITY     SUNNY    102  67  31 SE12G21   29.88F HX 107
BARTLESVILLE   SUNNY     99  70  38 SE7       29.90F HX 106
MUSKOGEE       SUNNY     99  71  40 SW7       29.91F HX 107
$$

OKZ032-040>043-046>053-073>077-242300-
SOUTH CENTRAL/SOUTHEAST OKLAHOMA

CITY           SKY/WX    TMP DP  RH WIND       PRES   REMARKS
ARDMORE/DWNTWN SUNNY     97  63  32 S7        29.90S HX  98
MCALESTER      SUNNY     99  72  41 S3        29.90F HX 108
$$




USA.gov is the U.S. government's official web portal to all federal, state and local government web resources and services.